Time,TemperatureF,DewpointF,PressureIn,WindDirection,WindDirectionDegrees,WindSpeedMPH,WindSpeedGustMPH,Humidity,HourlyPrecipIn,Conditions,Clouds,dailyrainin,SoftwareType,DateUTC
2013-02-03 00:00:00,26.4,23.9,30.02,NNE,23,0.0,0.0,90,0.00,,---,0.00,VWS V13.01,2013-02-03 05:00:00,
2013-02-03 00:01:00,26.4,23.9,30.02,NNE,23,0.0,0.0,90,0.00,,---,0.00,VWS V13.01,2013-02-03 05:01:00,
2013-02-03 00:06:00,26.3,23.8,30.02,NNE,23,0.0,0.0,90,0.00,,---,0.00,VWS V13.01,2013-02-03 05:06:00,
2013-02-03 00:11:00,26.3,23.8,30.02,NNE,23,0.0,0.0,90,0.00,,---,0.00,VWS V13.01,2013-02-03 05:11:00,
2013-02-03 00:16:00,26.3,23.8,30.01,NNE,23,0.0,0.0,90,0.00,,---,0.00,VWS V13.01,2013-02-03 05:16:00,
2013-02-03 00:21:00,26.3,24.0,30.01,NNE,23,0.0,0.0,91,0.00,,---,0.00,VWS V13.01,2013-02-03 05:21:00,
2013-02-03 00:26:00,26.3,24.0,30.01,NNE,23,0.0,0.0,91,0.00,,---,0.00,VWS V13.01,2013-02-03 05:26:00,
2013-02-03 00:30:00,26.1,23.8,29.98,East,93,0.0,0.0,91,0.00,,SKC,0.00,VWS V14.01,2013-02-03 05:30:00,
2013-02-03 00:31:00,26.4,24.1,30.01,NNE,23,0.0,0.0,91,0.00,,---,0.00,VWS V13.01,2013-02-03 05:31:00,
2013-02-03 00:36:00,26.4,24.1,30.01,NNE,23,0.0,0.0,91,0.00,,---,0.00,VWS V13.01,2013-02-03 05:36:00,
2013-02-03 00:41:00,26.4,24.1,30.00,NNE,23,0.0,0.0,91,0.00,,---,0.00,VWS V13.01,2013-02-03 05:41:00,
2013-02-03 00:46:00,26.4,24.1,30.00,NNE,23,0.0,0.0,91,0.00,,---,0.00,VWS V13.01,2013-02-03 05:46:00,
2013-02-03 00:51:00,26.5,24.2,30.00,NNE,33,0.0,0.0,91,0.00,,---,0.00,VWS V13.01,2013-02-03 05:51:00,
2013-02-03 00:56:00,26.5,24.2,29.99,NNE,16,0.0,0.0,91,0.00,,---,0.00,VWS V13.01,2013-02-03 05:56:00,
2013-02-03 01:00:00,25.2,23.2,29.97,East,92,0.0,0.0,92,0.00,,SKC,0.00,VWS V14.01,2013-02-03 06:00:00,
2013-02-03 01:01:00,26.5,24.2,29.99,NNE,18,0.0,0.0,91,0.00,,---,0.00,VWS V13.01,2013-02-03 06:01:00,
2013-02-03 01:06:00,26.5,24.2,29.99,NNE,25,0.0,0.0,91,0.00,,---,0.00,VWS V13.01,2013-02-03 06:06:00,
2013-02-03 01:11:00,26.4,24.1,29.99,East,94,0.0,0.0,91,0.00,,---,0.00,VWS V13.01,2013-02-03 06:11:00,
2013-02-03 01:16:00,26.3,24.0,29.99,East,94,0.0,0.0,91,0.00,,---,0.00,VWS V13.01,2013-02-03 06:16:00,
2013-02-03 01:21:00,26.3,24.0,29.98,East,93,0.0,0.0,91,0.00,,---,0.00,VWS V13.01,2013-02-03 06:21:00,
2013-02-03 01:26:00,26.2,23.9,29.98,East,94,0.0,0.0,91,0.00,,---,0.00,VWS V13.01,2013-02-03 06:26:00,
2013-02-03 01:30:00,24.7,22.7,29.97,East,91,0.0,0.0,92,0.00,,SKC,0.00,VWS V14.01,2013-02-03 06:30:00,
2013-02-03 01:31:00,26.0,23.7,29.98,East,94,0.0,0.0,91,0.00,,---,0.00,VWS V13.01,2013-02-03 06:31:00,
2013-02-03 01:36:00,25.9,23.6,29.98,East,94,0.0,0.0,91,0.00,,---,0.00,VWS V13.01,2013-02-03 06:36:00,
2013-02-03 01:41:00,25.7,23.4,29.98,East,91,0.0,0.0,91,0.00,,---,0.00,VWS V13.01,2013-02-03 06:41:00,
2013-02-03 01:46:00,25.6,23.3,29.98,East,90,0.0,0.0,91,0.00,,---,0.00,VWS V13.01,2013-02-03 06:46:00,
2013-02-03 01:51:00,25.4,23.1,29.97,East,91,0.0,0.0,91,0.00,,---,0.00,VWS V13.01,2013-02-03 06:51:00,
2013-02-03 01:56:00,25.3,23.0,29.97,East,91,0.0,0.0,91,0.00,,---,0.00,VWS V13.01,2013-02-03 06:56:00,
2013-02-03 02:00:00,24.7,22.7,29.95,ENE,76,0.0,0.0,92,0.00,,SKC,0.00,VWS V14.01,2013-02-03 07:00:00,
2013-02-03 02:01:00,25.2,23.2,29.97,East,92,0.0,0.0,92,0.00,,---,0.00,VWS V13.01,2013-02-03 07:01:00,
2013-02-03 02:06:00,25.1,23.1,29.97,East,91,0.0,0.0,92,0.00,,---,0.00,VWS V13.01,2013-02-03 07:06:00,
2013-02-03 02:11:00,25.0,23.0,29.97,East,91,0.0,0.0,92,0.00,,---,0.00,VWS V13.01,2013-02-03 07:11:00,
2013-02-03 02:16:00,24.9,22.9,29.97,East,92,0.0,0.0,92,0.00,,---,0.00,VWS V13.01,2013-02-03 07:16:00,
2013-02-03 02:21:00,24.9,22.9,29.97,East,92,0.0,0.0,92,0.00,,---,0.00,VWS V13.01,2013-02-03 07:21:00,
2013-02-03 02:26:00,24.8,22.8,29.97,East,91,0.0,0.0,92,0.00,,---,0.00,VWS V13.01,2013-02-03 07:26:00,
2013-02-03 02:30:00,25.0,23.3,29.94,North,6,0.0,0.0,93,0.00,,SKC,0.00,VWS V14.01,2013-02-03 07:30:00,
2013-02-03 02:31:00,24.7,22.7,29.96,East,91,0.0,0.0,92,0.00,,---,0.00,VWS V13.01,2013-02-03 07:31:00,
2013-02-03 02:36:00,24.7,22.7,29.96,East,91,0.0,0.0,92,0.00,,---,0.00,VWS V13.01,2013-02-03 07:36:00,
2013-02-03 02:41:00,24.7,22.7,29.96,East,91,0.0,0.0,92,0.00,,---,0.00,VWS V13.01,2013-02-03 07:41:00,
2013-02-03 02:46:00,24.7,22.7,29.96,East,91,0.0,0.0,92,0.00,,---,0.00,VWS V13.01,2013-02-03 07:46:00,
2013-02-03 02:51:00,24.7,22.7,29.96,East,90,0.0,0.0,92,0.00,,---,0.00,VWS V13.01,2013-02-03 07:51:00,
2013-02-03 02:56:00,24.7,22.7,29.96,ENE,76,0.0,0.0,92,0.00,,---,0.00,VWS V13.01,2013-02-03 07:56:00,
2013-02-03 03:00:00,25.0,23.3,29.93,NNE,13,0.0,1.0,93,0.00,,SKC,0.00,VWS V14.01,2013-02-03 08:00:00,
2013-02-03 03:01:00,24.6,22.9,29.95,ENE,73,0.0,0.0,93,0.00,,---,0.00,VWS V13.01,2013-02-03 08:01:00,
2013-02-03 03:06:00,24.6,22.9,29.95,ENE,74,0.0,0.0,93,0.00,,---,0.00,VWS V13.01,2013-02-03 08:06:00,
2013-02-03 03:11:00,24.6,22.9,29.95,ENE,73,0.0,0.0,93,0.00,,---,0.00,VWS V13.01,2013-02-03 08:11:00,
2013-02-03 03:16:00,24.6,22.9,29.95,ENE,74,0.0,0.0,93,0.00,,---,0.00,VWS V13.01,2013-02-03 08:16:00,
2013-02-03 03:21:00,24.7,23.0,29.95,ENE,73,0.0,0.0,93,0.00,,---,0.00,VWS V13.01,2013-02-03 08:21:00,
2013-02-03 03:26:00,24.8,23.1,29.94,North,358,0.0,0.0,93,0.00,,---,0.00,VWS V13.01,2013-02-03 08:26:00,
2013-02-03 03:30:00,24.8,23.1,29.93,North,9,0.0,0.0,93,0.00,,SKC,0.00,VWS V14.01,2013-02-03 08:30:00,
2013-02-03 03:31:00,25.0,23.3,29.94,North,7,0.0,0.0,93,0.00,,---,0.00,VWS V13.01,2013-02-03 08:31:00,
2013-02-03 03:36:00,25.0,23.3,29.94,North,1,0.0,0.0,93,0.00,,---,0.00,VWS V13.01,2013-02-03 08:36:00,
2013-02-03 03:41:00,25.0,23.3,29.94,North,11,0.0,1.0,93,0.00,,---,0.00,VWS V13.01,2013-02-03 08:41:00,
2013-02-03 03:46:00,25.1,23.4,29.94,NNE,13,0.0,1.0,93,0.00,,---,0.00,VWS V13.01,2013-02-03 08:46:00,
2013-02-03 03:51:00,25.0,23.3,29.93,NNE,18,0.0,1.0,93,0.00,,---,0.00,VWS V13.01,2013-02-03 08:51:00,
2013-02-03 03:56:00,25.0,23.3,29.93,NNE,27,0.0,1.0,93,0.00,,---,0.00,VWS V13.01,2013-02-03 08:56:00,
2013-02-03 04:00:00,24.2,22.5,29.93,ENE,67,0.0,0.0,93,0.00,,SKC,0.00,VWS V14.01,2013-02-03 09:00:00,
2013-02-03 04:01:00,25.0,23.3,29.93,NNE,30,0.0,0.0,93,0.00,,---,0.00,VWS V13.01,2013-02-03 09:01:00,
2013-02-03 04:06:00,25.0,23.3,29.93,NNE,27,0.0,0.0,93,0.00,,---,0.00,VWS V13.01,2013-02-03 09:06:00,
2013-02-03 04:11:00,25.0,23.3,29.93,NE,36,0.0,0.0,93,0.00,,---,0.00,VWS V13.01,2013-02-03 09:11:00,
2013-02-03 04:16:00,24.9,23.2,29.93,NE,36,0.0,0.0,93,0.00,,---,0.00,VWS V13.01,2013-02-03 09:16:00,
2013-02-03 04:21:00,24.9,23.2,29.93,North,359,0.0,0.0,93,0.00,,---,0.00,VWS V13.01,2013-02-03 09:21:00,
2013-02-03 04:26:00,24.9,23.2,29.93,North,9,0.0,0.0,93,0.00,,---,0.00,VWS V13.01,2013-02-03 09:26:00,
2013-02-03 04:30:00,24.4,22.9,29.93,NE,36,0.0,0.0,94,0.00,,SKC,0.00,VWS V14.01,2013-02-03 09:30:00,
2013-02-03 04:31:00,24.8,23.1,29.93,North,9,0.0,0.0,93,0.00,,---,0.00,VWS V13.01,2013-02-03 09:31:00,
2013-02-03 04:36:00,24.6,22.9,29.93,North,9,0.0,0.0,93,0.00,,---,0.00,VWS V13.01,2013-02-03 09:36:00,
2013-02-03 04:41:00,24.6,22.9,29.93,North,9,0.0,0.0,93,0.00,,---,0.00,VWS V13.01,2013-02-03 09:41:00,
2013-02-03 04:46:00,24.6,22.9,29.93,NE,54,0.0,0.0,93,0.00,,---,0.00,VWS V13.01,2013-02-03 09:46:00,
2013-02-03 04:51:00,24.5,22.8,29.93,ENE,67,0.0,0.0,93,0.00,,---,0.00,VWS V13.01,2013-02-03 09:51:00,
2013-02-03 04:56:00,24.4,22.7,29.93,ENE,67,0.0,0.0,93,0.00,,---,0.00,VWS V13.01,2013-02-03 09:56:00,
2013-02-03 05:00:00,24.6,23.1,29.93,NNE,26,0.0,1.0,94,0.00,,SKC,0.00,VWS V14.01,2013-02-03 10:00:00,
2013-02-03 05:01:00,24.2,22.5,29.93,ENE,66,0.0,0.0,93,0.00,,---,0.00,VWS V13.01,2013-02-03 10:01:00,
2013-02-03 05:06:00,24.1,22.4,29.93,ENE,67,0.0,0.0,93,0.00,,---,0.00,VWS V13.01,2013-02-03 10:06:00,
2013-02-03 05:11:00,24.1,22.4,29.93,ENE,65,0.0,0.0,93,0.00,,---,0.00,VWS V13.01,2013-02-03 10:11:00,
2013-02-03 05:16:00,24.2,22.7,29.93,ENE,65,0.0,0.0,94,0.00,,---,0.00,VWS V13.01,2013-02-03 10:16:00,
2013-02-03 05:21:00,24.3,22.8,29.93,NE,54,0.0,0.0,94,0.00,,---,0.00,VWS V13.01,2013-02-03 10:21:00,
2013-02-03 05:26:00,24.3,22.8,29.93,NNE,32,0.0,0.0,94,0.00,,---,0.00,VWS V13.01,2013-02-03 10:26:00,
2013-02-03 05:30:00,24.4,22.9,29.93,NE,56,0.0,0.0,94,0.00,,SKC,0.00,VWS V14.01,2013-02-03 10:30:00,
2013-02-03 05:31:00,24.4,22.9,29.93,NE,34,0.0,0.0,94,0.00,,---,0.00,VWS V13.01,2013-02-03 10:31:00,
2013-02-03 05:36:00,24.4,22.9,29.93,North,1,0.0,1.0,94,0.00,,---,0.00,VWS V13.01,2013-02-03 10:36:00,
2013-02-03 05:41:00,24.5,23.0,29.93,NNE,18,0.0,1.0,94,0.00,,---,0.00,VWS V13.01,2013-02-03 10:41:00,
2013-02-03 05:46:00,24.5,23.0,29.93,NNE,15,0.0,1.0,94,0.00,,---,0.00,VWS V13.01,2013-02-03 10:46:00,
2013-02-03 05:51:00,24.5,23.0,29.93,NE,42,0.0,1.0,94,0.00,,---,0.00,VWS V13.01,2013-02-03 10:51:00,
2013-02-03 05:56:00,24.6,23.1,29.93,NNE,14,0.0,1.0,94,0.00,,---,0.00,VWS V13.01,2013-02-03 10:56:00,
2013-02-03 06:00:00,24.0,22.5,29.93,NE,37,0.0,0.0,94,0.00,,SKC,0.00,VWS V14.01,2013-02-03 11:00:00,
2013-02-03 06:01:00,24.6,23.1,29.93,NE,36,0.0,0.0,94,0.00,,---,0.00,VWS V13.01,2013-02-03 11:01:00,
2013-02-03 06:06:00,24.6,23.1,29.93,NE,40,0.0,0.0,94,0.00,,---,0.00,VWS V13.01,2013-02-03 11:06:00,
2013-02-03 06:11:00,24.5,23.0,29.93,NNE,23,0.0,0.0,94,0.00,,---,0.00,VWS V13.01,2013-02-03 11:11:00,
2013-02-03 06:16:00,24.5,23.0,29.93,NE,42,0.0,0.0,94,0.00,,---,0.00,VWS V13.01,2013-02-03 11:16:00,
2013-02-03 06:21:00,24.4,22.9,29.93,ENE,57,0.0,0.0,94,0.00,,---,0.00,VWS V13.01,2013-02-03 11:21:00,
2013-02-03 06:26:00,24.4,22.9,29.93,NE,53,0.0,0.0,94,0.00,,---,0.00,VWS V13.01,2013-02-03 11:26:00,
2013-02-03 06:30:00,23.3,21.8,29.94,NE,37,0.0,0.0,94,0.00,,SKC,0.00,VWS V14.01,2013-02-03 11:30:00,
2013-02-03 06:31:00,24.3,22.8,29.93,ENE,57,0.0,0.0,94,0.00,,---,0.00,VWS V13.01,2013-02-03 11:31:00,
2013-02-03 06:36:00,24.3,22.8,29.94,ENE,57,0.0,0.0,94,0.00,,---,0.00,VWS V13.01,2013-02-03 11:36:00,
2013-02-03 06:41:00,24.2,22.7,29.94,NE,56,0.0,0.0,94,0.00,,---,0.00,VWS V13.01,2013-02-03 11:41:00,
2013-02-03 06:46:00,24.1,22.6,29.93,NE,56,0.0,0.0,94,0.00,,---,0.00,VWS V13.01,2013-02-03 11:46:00,
2013-02-03 06:51:00,24.1,22.6,29.93,NE,56,0.0,0.0,94,0.00,,---,0.00,VWS V13.01,2013-02-03 11:51:00,
2013-02-03 06:56:00,24.0,22.5,29.93,NE,37,0.0,0.0,94,0.00,,---,0.00,VWS V13.01,2013-02-03 11:56:00,
2013-02-03 07:00:00,23.9,22.4,29.94,NE,37,0.0,0.0,94,0.00,,SKC,0.00,VWS V14.01,2013-02-03 12:00:00,
2013-02-03 07:01:00,24.0,22.5,29.93,NE,37,0.0,0.0,94,0.00,,---,0.00,VWS V13.01,2013-02-03 12:01:00,
2013-02-03 07:05:00,23.9,22.4,29.94,NE,37,0.0,0.0,94,0.00,,---,0.00,VWS V13.01,2013-02-03 12:05:00,
2013-02-03 07:10:00,23.8,22.3,29.93,NE,37,0.0,0.0,94,0.00,,---,0.00,VWS V13.01,2013-02-03 12:10:00,
2013-02-03 07:15:00,23.6,22.1,29.93,NE,37,0.0,0.0,94,0.00,,---,0.00,VWS V13.01,2013-02-03 12:15:00,
2013-02-03 07:20:00,23.5,22.0,29.94,NE,37,0.0,0.0,94,0.00,,---,0.00,VWS V13.01,2013-02-03 12:20:00,
2013-02-03 07:25:00,23.4,21.9,29.94,NE,37,0.0,0.0,94,0.00,,---,0.00,VWS V13.01,2013-02-03 12:25:00,
2013-02-03 07:30:00,23.3,21.8,29.94,NE,37,0.0,0.0,94,0.00,,---,0.00,VWS V13.01,2013-02-03 12:30:00,
2013-02-03 07:35:00,23.4,21.9,29.94,NE,37,0.0,0.0,94,0.00,,---,0.00,VWS V13.01,2013-02-03 12:35:00,
2013-02-03 07:40:00,23.5,22.0,29.94,NE,37,0.0,0.0,94,0.00,,---,0.00,VWS V13.01,2013-02-03 12:40:00,
2013-02-03 07:45:00,23.5,22.0,29.94,NE,37,0.0,0.0,94,0.00,,---,0.00,VWS V13.01,2013-02-03 12:45:00,
2013-02-03 07:50:00,23.7,22.2,29.94,NE,37,0.0,0.0,94,0.00,,---,0.00,VWS V13.01,2013-02-03 12:50:00,
2013-02-03 07:55:00,23.8,22.3,29.94,NE,37,0.0,0.0,94,0.00,,---,0.00,VWS V13.01,2013-02-03 12:55:00,
2013-02-03 08:00:00,25.8,24.3,29.94,NE,54,0.0,0.0,94,0.00,,SKC,0.00,VWS V14.01,2013-02-03 13:00:00,
2013-02-03 08:01:00,23.9,22.4,29.94,NE,37,0.0,0.0,94,0.00,,---,0.00,VWS V13.01,2013-02-03 13:01:00,
2013-02-03 08:06:00,24.0,22.5,29.94,NE,37,0.0,0.0,94,0.00,,---,0.00,VWS V13.01,2013-02-03 13:06:00,
2013-02-03 08:11:00,24.2,22.7,29.94,NE,37,0.0,0.0,94,0.00,,---,0.00,VWS V13.01,2013-02-03 13:11:00,
2013-02-03 08:16:00,24.4,22.9,29.94,NE,37,0.0,0.0,94,0.00,,---,0.00,VWS V13.01,2013-02-03 13:16:00,
2013-02-03 08:21:00,24.5,23.0,29.94,NE,37,0.0,0.0,94,0.00,,---,0.00,VWS V13.01,2013-02-03 13:21:00,
2013-02-03 08:26:00,24.6,23.1,29.95,NE,37,0.0,0.0,94,0.00,,---,0.00,VWS V13.01,2013-02-03 13:26:00,
2013-02-03 08:30:00,26.6,25.1,29.93,ENE,65,0.0,0.0,94,0.00,,SKC,0.00,VWS V14.01,2013-02-03 13:30:00,
2013-02-03 08:31:00,24.8,23.3,29.95,NE,37,0.0,0.0,94,0.00,,---,0.00,VWS V13.01,2013-02-03 13:31:00,
2013-02-03 08:36:00,25.0,23.5,29.95,NE,37,0.0,0.0,94,0.00,,---,0.00,VWS V13.01,2013-02-03 13:36:00,
2013-02-03 08:41:00,25.2,23.7,29.95,NE,37,0.0,0.0,94,0.00,,---,0.00,VWS V13.01,2013-02-03 13:41:00,
2013-02-03 08:46:00,25.4,23.9,29.95,NE,37,0.0,0.0,94,0.00,,---,0.00,VWS V13.01,2013-02-03 13:46:00,
2013-02-03 08:51:00,25.6,24.1,29.95,NE,37,0.0,0.0,94,0.00,,---,0.00,VWS V13.01,2013-02-03 13:51:00,
2013-02-03 08:56:00,25.7,24.2,29.94,NE,54,0.0,0.0,94,0.00,,---,0.00,VWS V13.01,2013-02-03 13:56:00,
2013-02-03 09:00:00,27.5,25.8,29.93,NE,36,0.0,0.0,93,0.00,,SKC,0.00,VWS V14.01,2013-02-03 14:00:00,
2013-02-03 09:01:00,25.9,24.4,29.94,NE,54,0.0,0.0,94,0.00,,---,0.00,VWS V13.01,2013-02-03 14:01:00,
2013-02-03 09:06:00,26.2,24.7,29.94,NE,53,0.0,0.0,94,0.00,,---,0.00,VWS V13.01,2013-02-03 14:06:00,
2013-02-03 09:11:00,26.3,24.8,29.94,NE,54,0.0,0.0,94,0.00,,---,0.00,VWS V13.01,2013-02-03 14:11:00,
2013-02-03 09:16:00,26.4,24.9,29.94,NE,53,0.0,0.0,94,0.00,,---,0.00,VWS V13.01,2013-02-03 14:16:00,
2013-02-03 09:21:00,26.5,25.0,29.94,NE,46,0.0,0.0,94,0.00,,---,0.00,VWS V13.01,2013-02-03 14:21:00,
2013-02-03 09:26:00,26.5,25.0,29.94,NE,48,0.0,0.0,94,0.00,,---,0.00,VWS V13.01,2013-02-03 14:26:00,
2013-02-03 09:30:00,28.5,26.2,29.92,NE,35,0.0,0.0,91,0.00,,SKC,0.00,VWS V14.01,2013-02-03 14:30:00,
2013-02-03 09:31:00,26.6,25.1,29.93,ENE,65,0.0,0.0,94,0.00,,---,0.00,VWS V13.01,2013-02-03 14:31:00,
2013-02-03 09:36:00,26.7,25.2,29.93,NE,44,0.0,0.0,94,0.00,,---,0.00,VWS V13.01,2013-02-03 14:36:00,
2013-02-03 09:41:00,26.9,25.4,29.93,ENE,68,0.0,0.0,94,0.00,,---,0.00,VWS V13.01,2013-02-03 14:41:00,
2013-02-03 09:46:00,27.1,25.6,29.93,NE,49,0.0,0.0,94,0.00,,---,0.00,VWS V13.01,2013-02-03 14:46:00,
2013-02-03 09:51:00,27.2,25.5,29.93,NE,52,0.0,0.0,93,0.00,,---,0.00,VWS V13.01,2013-02-03 14:51:00,
2013-02-03 09:56:00,27.4,25.6,29.93,NE,49,0.0,0.0,93,0.00,,---,0.00,VWS V13.01,2013-02-03 14:56:00,
2013-02-03 10:00:00,29.8,27.0,29.92,East,87,0.0,0.0,89,0.00,,SKC,0.00,VWS V14.01,2013-02-03 15:00:00,
2013-02-03 10:01:00,27.5,25.8,29.93,NE,36,0.0,0.0,93,0.00,,---,0.00,VWS V13.01,2013-02-03 15:01:00,
2013-02-03 10:06:00,27.8,26.0,29.93,NE,39,0.0,0.0,93,0.00,,---,0.00,VWS V13.01,2013-02-03 15:06:00,
2013-02-03 10:11:00,27.8,26.0,29.92,ENE,66,0.0,0.0,93,0.00,,---,0.00,VWS V13.01,2013-02-03 15:11:00,
2013-02-03 10:16:00,27.9,25.9,29.92,NE,45,0.0,0.0,92,0.00,,---,0.00,VWS V13.01,2013-02-03 15:16:00,
2013-02-03 10:21:00,28.2,26.4,29.92,ENE,60,0.0,0.0,93,0.00,,---,0.00,VWS V13.01,2013-02-03 15:21:00,
2013-02-03 10:26:00,28.5,26.5,29.92,NNE,16,0.0,0.0,92,0.00,,---,0.00,VWS V13.01,2013-02-03 15:26:00,
2013-02-03 10:30:00,30.2,26.2,29.91,SW,236,0.0,3.0,85,0.00,,SKC,0.00,VWS V14.01,2013-02-03 15:30:00,
2013-02-03 10:31:00,28.5,26.2,29.92,NE,37,0.0,0.0,91,0.00,,---,0.00,VWS V13.01,2013-02-03 15:31:00,
2013-02-03 10:36:00,28.7,26.7,29.92,NNE,23,0.0,0.0,92,0.00,,---,0.00,VWS V13.01,2013-02-03 15:36:00,
2013-02-03 10:41:00,29.0,26.7,29.92,NE,41,0.0,0.0,91,0.00,,---,0.00,VWS V13.01,2013-02-03 15:41:00,
2013-02-03 10:46:00,29.3,27.0,29.92,North,359,0.0,0.0,91,0.00,,---,0.00,VWS V13.01,2013-02-03 15:46:00,
2013-02-03 10:51:00,29.5,26.9,29.92,NNE,25,0.0,0.0,90,0.00,,---,0.00,VWS V13.01,2013-02-03 15:51:00,
2013-02-03 10:56:00,29.7,27.1,29.92,East,101,0.0,0.0,90,0.00,,---,0.00,VWS V13.01,2013-02-03 15:56:00,
2013-02-03 11:00:00,30.6,26.6,29.89,WSW,242,0.0,0.0,85,0.00,,SKC,0.00,VWS V14.01,2013-02-03 16:00:00,
2013-02-03 11:01:00,29.8,27.0,29.92,East,98,0.0,0.0,89,0.00,,---,0.00,VWS V13.01,2013-02-03 16:01:00,
2013-02-03 11:06:00,29.9,26.8,29.92,SSE,158,0.0,0.0,88,0.00,,---,0.00,VWS V13.01,2013-02-03 16:06:00,
2013-02-03 11:11:00,30.0,26.6,29.92,SE,139,0.0,0.0,87,0.00,,---,0.00,VWS V13.01,2013-02-03 16:11:00,
2013-02-03 11:16:00,30.1,26.7,29.92,South,190,0.0,0.0,87,0.00,,---,0.00,VWS V13.01,2013-02-03 16:16:00,
2013-02-03 11:21:00,30.3,26.9,29.91,SE,132,0.0,3.0,87,0.00,,---,0.00,VWS V13.01,2013-02-03 16:21:00,
2013-02-03 11:26:00,30.3,26.6,29.91,SSW,203,0.0,3.0,86,0.00,,---,0.00,VWS V13.01,2013-02-03 16:26:00,
2013-02-03 11:30:00,30.9,27.5,29.88,WSW,248,0.0,1.0,87,0.00,,SKC,0.00,VWS V14.01,2013-02-03 16:30:00,
2013-02-03 11:31:00,30.2,26.2,29.91,SW,224,0.0,0.0,85,0.00,,---,0.00,VWS V13.01,2013-02-03 16:31:00,
2013-02-03 11:36:00,30.2,26.2,29.91,SW,215,0.0,0.0,85,0.00,,---,0.00,VWS V13.01,2013-02-03 16:36:00,
2013-02-03 11:41:00,30.1,26.4,29.90,SW,225,0.0,0.0,86,0.00,,---,0.00,VWS V13.01,2013-02-03 16:41:00,
2013-02-03 11:46:00,30.3,26.6,29.90,SW,228,0.0,0.0,86,0.00,,---,0.00,VWS V13.01,2013-02-03 16:46:00,
2013-02-03 11:51:00,30.5,26.5,29.90,WSW,240,0.0,0.0,85,0.00,,---,0.00,VWS V13.01,2013-02-03 16:51:00,
2013-02-03 11:56:00,30.5,26.2,29.90,SW,235,0.0,0.0,84,0.00,,---,0.00,VWS V13.01,2013-02-03 16:56:00,
2013-02-03 12:00:00,31.2,27.5,29.86,SW,232,5.0,8.0,86,0.00,,SKC,0.00,VWS V14.01,2013-02-03 17:00:00,
2013-02-03 12:01:00,30.8,27.1,29.89,WSW,240,0.0,0.0,86,0.00,,---,0.00,VWS V13.01,2013-02-03 17:01:00,
2013-02-03 12:06:00,30.8,26.8,29.89,WSW,245,0.0,1.0,85,0.00,,---,0.00,VWS V13.01,2013-02-03 17:06:00,
2013-02-03 12:11:00,30.7,26.7,29.89,WSW,239,0.0,1.0,85,0.00,,---,0.00,VWS V13.01,2013-02-03 17:11:00,
2013-02-03 12:16:00,30.5,26.5,29.89,WSW,245,0.0,1.0,85,0.00,,---,0.00,VWS V13.01,2013-02-03 17:16:00,
2013-02-03 12:21:00,30.6,26.9,29.88,SE,141,0.0,1.0,86,0.00,,---,0.00,VWS V13.01,2013-02-03 17:21:00,
2013-02-03 12:26:00,30.8,27.1,29.88,SSW,208,0.0,1.0,86,0.00,,---,0.00,VWS V13.01,2013-02-03 17:26:00,
2013-02-03 12:30:00,31.5,27.8,29.85,SW,228,6.0,9.0,86,0.00,,SKC,0.00,VWS V14.01,2013-02-03 17:30:00,
2013-02-03 12:31:00,30.9,27.5,29.88,WSW,256,0.0,0.0,87,0.00,,---,0.00,VWS V13.01,2013-02-03 17:31:00,
2013-02-03 12:36:00,31.1,27.7,29.87,SW,214,0.0,1.0,87,0.00,,---,0.00,VWS V13.01,2013-02-03 17:36:00,
2013-02-03 12:41:00,31.5,28.1,29.87,SW,214,0.0,1.0,87,0.00,,---,0.00,VWS V13.01,2013-02-03 17:41:00,
2013-02-03 12:46:00,31.4,27.7,29.87,SW,224,1.0,3.0,86,0.00,,---,0.00,VWS V13.01,2013-02-03 17:46:00,
2013-02-03 12:51:00,31.4,27.7,29.86,SSW,213,6.0,7.0,86,0.00,,---,0.00,VWS V13.01,2013-02-03 17:51:00,
2013-02-03 12:56:00,31.2,27.5,29.86,SSW,207,3.0,7.0,86,0.00,,---,0.00,VWS V13.01,2013-02-03 17:56:00,
2013-02-03 13:00:00,31.9,28.5,29.84,SSE,153,0.0,7.0,87,0.00,,SKC,0.00,VWS V14.01,2013-02-03 18:00:00,
2013-02-03 13:01:00,31.1,27.4,29.86,SW,228,1.0,5.0,86,0.00,,---,0.00,VWS V13.01,2013-02-03 18:01:00,
2013-02-03 13:06:00,31.2,27.8,29.86,SW,218,4.0,9.0,87,0.00,,---,0.00,VWS V13.01,2013-02-03 18:06:00,
2013-02-03 13:11:00,31.3,27.9,29.86,SW,221,0.0,9.0,87,0.00,,---,0.00,VWS V13.01,2013-02-03 18:11:00,
2013-02-03 13:16:00,31.3,27.6,29.86,SW,229,2.0,9.0,86,0.00,,---,0.00,VWS V13.01,2013-02-03 18:16:00,
2013-02-03 13:21:00,31.4,27.7,29.86,SW,214,4.0,9.0,86,0.00,,---,0.00,VWS V13.01,2013-02-03 18:21:00,
2013-02-03 13:26:00,31.4,28.0,29.85,SSW,210,0.0,9.0,87,0.00,,---,0.00,VWS V13.01,2013-02-03 18:26:00,
2013-02-03 13:30:00,31.3,27.6,29.83,SSW,212,1.0,7.0,86,0.00,,SKC,0.00,VWS V14.01,2013-02-03 18:30:00,
2013-02-03 13:31:00,31.4,27.7,29.85,SW,219,2.0,6.0,86,0.00,,---,0.00,VWS V13.01,2013-02-03 18:31:00,
2013-02-03 13:36:00,31.4,27.7,29.85,WSW,241,1.0,6.0,86,0.00,,---,0.00,VWS V13.01,2013-02-03 18:36:00,
2013-02-03 13:41:00,31.5,27.8,29.85,SSW,212,3.0,6.0,86,0.00,,---,0.00,VWS V13.01,2013-02-03 18:41:00,
2013-02-03 13:46:00,31.6,28.2,29.84,SSE,155,0.0,6.0,87,0.00,,---,0.00,VWS V13.01,2013-02-03 18:46:00,
2013-02-03 13:51:00,31.7,28.0,29.84,SSE,155,0.0,7.0,86,0.00,,---,0.00,VWS V13.01,2013-02-03 18:51:00,
2013-02-03 13:56:00,31.9,28.5,29.84,SW,225,0.0,7.0,87,0.00,,---,0.00,VWS V13.01,2013-02-03 18:56:00,
2013-02-03 14:00:00,32.5,27.9,29.83,SSW,201,0.0,8.0,83,0.00,,SKC,0.00,VWS V14.01,2013-02-03 19:00:00,
2013-02-03 14:01:00,32.0,28.6,29.84,SSW,204,0.0,1.0,87,0.00,,---,0.00,VWS V13.01,2013-02-03 19:01:00,
2013-02-03 14:06:00,31.9,28.2,29.84,SSW,203,4.0,6.0,86,0.00,,---,0.00,VWS V13.01,2013-02-03 19:06:00,
2013-02-03 14:11:00,31.7,28.3,29.84,WSW,243,5.0,6.0,87,0.00,,---,0.00,VWS V13.01,2013-02-03 19:11:00,
2013-02-03 14:16:00,31.6,27.9,29.84,SW,228,4.0,6.0,86,0.00,,---,0.00,VWS V13.01,2013-02-03 19:16:00,
2013-02-03 14:21:00,31.6,27.9,29.84,SSW,210,3.0,6.0,86,0.00,,---,0.00,VWS V13.01,2013-02-03 19:21:00,
2013-02-03 14:26:00,31.5,27.5,29.83,SW,219,2.0,7.0,85,0.00,,---,0.00,VWS V13.01,2013-02-03 19:26:00,
2013-02-03 14:30:00,32.3,27.7,29.84,SW,225,1.0,6.0,83,0.00,,SKC,0.00,VWS V14.01,2013-02-03 19:30:00,
2013-02-03 14:31:00,31.2,27.5,29.83,SW,229,0.0,1.0,86,0.00,,---,0.00,VWS V13.01,2013-02-03 19:31:00,
2013-02-03 14:36:00,31.3,27.6,29.83,WSW,243,0.0,8.0,86,0.00,,---,0.00,VWS V13.01,2013-02-03 19:36:00,
2013-02-03 14:41:00,31.6,27.9,29.83,South,184,0.0,8.0,86,0.00,,---,0.00,VWS V13.01,2013-02-03 19:41:00,
2013-02-03 14:46:00,31.9,28.2,29.83,SSW,210,0.0,8.0,86,0.00,,---,0.00,VWS V13.01,2013-02-03 19:46:00,
2013-02-03 14:51:00,32.1,28.1,29.83,SW,214,4.0,8.0,85,0.00,,---,0.00,VWS V13.01,2013-02-03 19:51:00,
2013-02-03 14:56:00,32.5,28.5,29.83,SW,221,3.0,8.0,85,0.00,,---,0.00,VWS V13.01,2013-02-03 19:56:00,
2013-02-03 15:00:00,32.1,27.5,29.83,SW,221,0.0,7.0,83,0.00,,SKC,0.00,VWS V14.01,2013-02-03 20:00:00,
2013-02-03 15:01:00,32.4,27.8,29.83,SW,226,0.0,0.0,83,0.00,,---,0.00,VWS V13.01,2013-02-03 20:01:00,
2013-02-03 15:06:00,32.3,27.7,29.83,SSW,212,2.0,4.0,83,0.00,,---,0.00,VWS V13.01,2013-02-03 20:06:00,
2013-02-03 15:11:00,32.1,27.5,29.83,SW,224,5.0,6.0,83,0.00,,---,0.00,VWS V13.01,2013-02-03 20:11:00,
2013-02-03 15:16:00,32.1,27.5,29.83,SW,222,0.0,6.0,83,0.00,,---,0.00,VWS V13.01,2013-02-03 20:16:00,
2013-02-03 15:21:00,32.2,27.6,29.84,SE,125,0.0,6.0,83,0.00,,---,0.00,VWS V13.01,2013-02-03 20:21:00,
2013-02-03 15:26:00,32.2,27.6,29.84,SW,217,1.0,6.0,83,0.00,,---,0.00,VWS V13.01,2013-02-03 20:26:00,
2013-02-03 15:30:00,31.9,27.6,29.83,SSW,204,0.0,4.0,84,0.00,,SKC,0.00,VWS V14.01,2013-02-03 20:30:00,
2013-02-03 15:31:00,32.3,28.0,29.83,SW,235,3.0,4.0,84,0.00,,---,0.00,VWS V13.01,2013-02-03 20:31:00,
2013-02-03 15:36:00,32.2,27.6,29.84,SW,214,4.0,5.0,83,0.00,,---,0.00,VWS V13.01,2013-02-03 20:36:00,
2013-02-03 15:41:00,32.3,27.7,29.84,SSE,167,0.0,6.0,83,0.00,,---,0.00,VWS V13.01,2013-02-03 20:41:00,
2013-02-03 15:46:00,32.4,27.8,29.84,SW,222,5.0,6.0,83,0.00,,---,0.00,VWS V13.01,2013-02-03 20:46:00,
2013-02-03 15:51:00,32.2,27.3,29.84,SW,226,5.0,7.0,82,0.00,,---,0.00,VWS V13.01,2013-02-03 20:51:00,
2013-02-03 15:56:00,32.1,27.5,29.84,SW,232,3.0,7.0,83,0.00,,---,0.00,VWS V13.01,2013-02-03 20:56:00,
2013-02-03 16:00:00,31.2,27.8,29.84,SSW,207,0.0,7.0,87,0.00,,SKC,0.00,VWS V14.01,2013-02-03 21:00:00,
2013-02-03 16:01:00,32.1,27.5,29.83,SSW,210,0.0,0.0,83,0.00,,---,0.00,VWS V13.01,2013-02-03 21:01:00,
2013-02-03 16:06:00,32.2,27.6,29.83,SSW,194,0.0,4.0,83,0.00,,---,0.00,VWS V13.01,2013-02-03 21:06:00,
2013-02-03 16:11:00,32.1,27.5,29.83,SE,127,0.0,4.0,83,0.00,,---,0.00,VWS V13.01,2013-02-03 21:11:00,
2013-02-03 16:16:00,32.0,27.4,29.83,SW,215,0.0,4.0,83,0.00,,---,0.00,VWS V13.01,2013-02-03 21:16:00,
2013-02-03 16:21:00,32.0,27.4,29.83,SW,214,0.0,4.0,83,0.00,,---,0.00,VWS V13.01,2013-02-03 21:21:00,
2013-02-03 16:26:00,32.0,27.7,29.83,SW,227,2.0,4.0,84,0.00,,---,0.00,VWS V13.01,2013-02-03 21:26:00,
2013-02-03 16:30:00,30.6,28.0,29.84,SW,214,0.0,4.0,90,0.00,,SKC,0.00,VWS V14.01,2013-02-03 21:30:00,
2013-02-03 16:31:00,31.9,27.6,29.83,SSW,204,1.0,1.0,84,0.00,,---,0.00,VWS V13.01,2013-02-03 21:31:00,
2013-02-03 16:36:00,31.8,27.5,29.83,SSW,203,1.0,4.0,84,0.00,,---,0.00,VWS V13.01,2013-02-03 21:36:00,
2013-02-03 16:41:00,31.8,27.5,29.83,SSW,207,0.0,5.0,84,0.00,,---,0.00,VWS V13.01,2013-02-03 21:41:00,
2013-02-03 16:46:00,31.6,27.6,29.83,SSW,212,4.0,6.0,85,0.00,,---,0.00,VWS V13.01,2013-02-03 21:46:00,
2013-02-03 16:51:00,31.5,27.5,29.83,WSW,237,1.0,7.0,85,0.00,,---,0.00,VWS V13.01,2013-02-03 21:51:00,
2013-02-03 16:56:00,31.3,27.6,29.83,SSW,205,3.0,7.0,86,0.00,,---,0.00,VWS V13.01,2013-02-03 21:56:00,
2013-02-03 17:00:00,29.6,27.3,29.84,SW,232,0.0,1.0,91,0.00,,SKC,0.00,VWS V14.01,2013-02-03 22:00:00,
2013-02-03 17:01:00,31.2,27.8,29.84,SSW,203,3.0,3.0,87,0.00,,---,0.00,VWS V13.01,2013-02-03 22:01:00,
2013-02-03 17:06:00,31.0,27.9,29.84,SSW,212,0.0,4.0,88,0.00,,---,0.00,VWS V13.01,2013-02-03 22:06:00,
2013-02-03 17:11:00,30.9,27.8,29.84,SW,214,0.0,4.0,88,0.00,,---,0.00,VWS V13.01,2013-02-03 22:11:00,
2013-02-03 17:16:00,30.8,28.0,29.84,SSW,212,0.0,4.0,89,0.00,,---,0.00,VWS V13.01,2013-02-03 22:16:00,
2013-02-03 17:21:00,30.8,28.0,29.84,SSW,200,0.0,4.0,89,0.00,,---,0.00,VWS V13.01,2013-02-03 22:21:00,
2013-02-03 17:26:00,30.7,28.1,29.83,SSW,198,0.0,4.0,90,0.00,,---,0.00,VWS V13.01,2013-02-03 22:26:00,
2013-02-03 17:30:00,28.0,26.0,29.84,SW,232,0.0,0.0,92,0.00,,SKC,0.00,VWS V14.01,2013-02-03 22:30:00,
2013-02-03 17:31:00,30.6,28.0,29.84,SW,228,0.0,0.0,90,0.00,,---,0.00,VWS V13.01,2013-02-03 22:31:00,
2013-02-03 17:36:00,30.5,27.9,29.84,WSW,238,0.0,0.0,90,0.00,,---,0.00,VWS V13.01,2013-02-03 22:36:00,
2013-02-03 17:41:00,30.4,28.1,29.84,SW,222,0.0,1.0,91,0.00,,---,0.00,VWS V13.01,2013-02-03 22:41:00,
2013-02-03 17:46:00,30.3,28.0,29.84,WSW,245,0.0,1.0,91,0.00,,---,0.00,VWS V13.01,2013-02-03 22:46:00,
2013-02-03 17:51:00,30.1,27.8,29.84,SW,232,0.0,1.0,91,0.00,,---,0.00,VWS V13.01,2013-02-03 22:51:00,
2013-02-03 17:55:00,29.8,27.5,29.84,SW,232,0.0,1.0,91,0.00,,---,0.00,VWS V13.01,2013-02-03 22:55:00,
2013-02-03 18:00:00,29.5,27.2,29.84,SW,232,0.0,0.0,91,0.00,,---,0.00,VWS V13.01,2013-02-03 23:00:00,
2013-02-03 18:05:00,29.2,26.9,29.84,SW,233,0.0,0.0,91,0.00,,---,0.00,VWS V13.01,2013-02-03 23:05:00,
2013-02-03 18:10:00,28.9,26.6,29.84,SW,232,0.0,0.0,91,0.00,,---,0.00,VWS V13.01,2013-02-03 23:10:00,
2013-02-03 18:15:00,28.5,26.2,29.84,SW,232,0.0,0.0,91,0.00,,---,0.00,VWS V13.01,2013-02-03 23:15:00,
2013-02-03 18:20:00,28.2,26.2,29.84,SW,232,0.0,0.0,92,0.00,,---,0.00,VWS V13.01,2013-02-03 23:20:00,
2013-02-03 18:25:00,28.1,26.1,29.84,SW,233,0.0,0.0,92,0.00,,---,0.00,VWS V13.01,2013-02-03 23:25:00,
2013-02-03 18:30:00,27.9,25.9,29.84,SW,232,0.0,0.0,92,0.00,,---,0.00,VWS V13.01,2013-02-03 23:30:00,
2013-02-03 18:35:00,27.8,25.8,29.85,SW,232,0.0,0.0,92,0.00,,---,0.00,VWS V13.01,2013-02-03 23:35:00,
2013-02-03 18:40:00,27.7,25.9,29.85,SW,232,0.0,0.0,93,0.00,,---,0.00,VWS V13.01,2013-02-03 23:40:00,
2013-02-03 18:45:00,27.7,25.9,29.85,SW,232,0.0,0.0,93,0.00,,---,0.00,VWS V13.01,2013-02-03 23:45:00,
2013-02-03 18:50:00,27.8,26.0,29.85,SW,232,0.0,0.0,93,0.00,,---,0.00,VWS V13.01,2013-02-03 23:50:00,
2013-02-03 18:55:00,27.8,26.0,29.85,SW,233,0.0,0.0,93,0.00,,---,0.00,VWS V13.01,2013-02-03 23:55:00,
2013-02-03 19:00:00,27.8,26.0,29.86,SW,232,0.0,0.0,93,0.00,,---,0.00,VWS V13.01,2013-02-04 00:00:00,
2013-02-03 19:05:00,27.6,25.8,29.86,SW,232,0.0,0.0,93,0.00,,---,0.00,VWS V13.01,2013-02-04 00:05:00,
2013-02-03 19:10:00,27.4,25.6,29.86,SW,232,0.0,0.0,93,0.00,,---,0.00,VWS V13.01,2013-02-04 00:10:00,
2013-02-03 19:15:00,27.3,25.5,29.86,SW,232,0.0,0.0,93,0.00,,---,0.00,VWS V13.01,2013-02-04 00:15:00,
2013-02-03 19:20:00,27.3,25.5,29.87,SW,232,0.0,0.0,93,0.00,,---,0.00,VWS V13.01,2013-02-04 00:20:00,
2013-02-03 19:25:00,27.5,26.0,29.87,SW,232,0.0,0.0,94,0.00,,---,0.00,VWS V13.01,2013-02-04 00:25:00,
2013-02-03 19:30:00,27.5,25.8,29.87,SW,233,0.0,0.0,93,0.00,,---,0.00,VWS V13.01,2013-02-04 00:30:00,
2013-02-03 19:35:00,27.4,25.6,29.87,SW,232,0.0,0.0,93,0.00,,---,0.00,VWS V13.01,2013-02-04 00:35:00,
2013-02-03 19:40:00,27.4,25.6,29.87,SW,233,0.0,0.0,93,0.00,,---,0.00,VWS V13.01,2013-02-04 00:40:00,
2013-02-03 19:45:00,27.4,25.6,29.87,SW,233,0.0,0.0,93,0.00,,---,0.00,VWS V13.01,2013-02-04 00:45:00,
2013-02-03 19:50:00,27.4,25.6,29.87,SW,232,0.0,0.0,93,0.00,,---,0.00,VWS V13.01,2013-02-04 00:50:00,
2013-02-03 19:55:00,27.4,25.6,29.87,SW,232,0.0,0.0,93,0.00,,---,0.00,VWS V13.01,2013-02-04 00:55:00,
2013-02-03 20:00:00,27.4,25.6,29.87,SW,232,0.0,0.0,93,0.00,,---,0.00,VWS V13.01,2013-02-04 01:00:00,
2013-02-03 20:05:00,27.5,26.0,29.88,SW,232,0.0,0.0,94,0.00,,---,0.00,VWS V13.01,2013-02-04 01:05:00,
2013-02-03 20:10:00,27.6,26.1,29.88,SW,233,0.0,0.0,94,0.00,,---,0.00,VWS V13.01,2013-02-04 01:10:00,
2013-02-03 20:15:00,27.7,26.2,29.88,SW,232,0.0,0.0,94,0.00,,---,0.00,VWS V13.01,2013-02-04 01:15:00,
2013-02-03 20:20:00,27.7,26.2,29.88,SW,232,0.0,0.0,94,0.00,,---,0.00,VWS V13.01,2013-02-04 01:20:00,
2013-02-03 20:25:00,27.7,26.2,29.89,SW,232,0.0,0.0,94,0.00,,---,0.00,VWS V13.01,2013-02-04 01:25:00,
2013-02-03 20:30:00,27.8,26.3,29.89,SW,232,0.0,0.0,94,0.00,,---,0.00,VWS V13.01,2013-02-04 01:30:00,
2013-02-03 20:35:00,27.9,26.4,29.89,SW,232,0.0,0.0,94,0.00,,---,0.00,VWS V13.01,2013-02-04 01:35:00,
2013-02-03 20:40:00,27.8,26.3,29.89,SW,232,0.0,0.0,94,0.00,,---,0.00,VWS V13.01,2013-02-04 01:40:00,
2013-02-03 20:45:00,27.8,26.3,29.90,SW,232,0.0,0.0,94,0.00,,---,0.00,VWS V13.01,2013-02-04 01:45:00,
2013-02-03 20:50:00,27.9,26.4,29.90,SW,232,0.0,0.0,94,0.00,,---,0.00,VWS V13.01,2013-02-04 01:50:00,
2013-02-03 20:55:00,28.3,26.8,29.90,SW,214,2.0,2.0,94,0.00,,---,0.00,VWS V13.01,2013-02-04 01:55:00,
2013-02-03 21:00:00,29.4,26.0,29.90,West,271,8.0,11.0,87,0.00,,---,0.00,VWS V13.01,2013-02-04 02:00:00,
2013-02-03 21:05:00,30.5,24.8,29.90,West,278,6.0,14.0,79,0.00,,---,0.00,VWS V13.01,2013-02-04 02:05:00,
2013-02-03 21:10:00,31.1,24.1,29.90,WNW,284,7.0,14.0,75,0.00,,---,0.00,VWS V13.01,2013-02-04 02:10:00,
2013-02-03 21:15:00,31.3,24.0,29.91,WNW,293,13.0,18.0,74,0.00,,---,0.00,VWS V13.01,2013-02-04 02:15:00,
2013-02-03 21:20:00,31.0,24.0,29.91,WNW,282,16.0,21.0,75,0.00,,---,0.00,VWS V13.01,2013-02-04 02:20:00,
2013-02-03 21:25:00,30.7,24.0,29.92,WNW,291,12.0,22.0,76,0.00,,---,0.00,VWS V13.01,2013-02-04 02:25:00,
2013-02-03 21:30:00,29.4,25.5,29.92,WSW,246,19.0,19.0,85,0.00,,---,0.00,VWS V13.01,2013-02-04 02:30:00,
2013-02-03 21:35:00,29.0,24.8,29.92,WNW,293,8.0,19.0,84,0.00,,---,0.00,VWS V13.01,2013-02-04 02:35:00,
2013-02-03 21:40:00,28.8,24.9,29.92,West,271,8.0,19.0,85,0.00,,---,0.00,VWS V13.01,2013-02-04 02:40:00,
2013-02-03 21:45:00,28.6,24.7,29.92,WNW,285,5.0,19.0,85,0.00,,---,0.00,VWS V13.01,2013-02-04 02:45:00,
2013-02-03 21:50:00,28.9,24.1,29.93,WNW,283,4.0,19.0,82,0.00,,---,0.00,VWS V13.01,2013-02-04 02:50:00,
2013-02-03 21:55:00,29.3,23.3,29.93,West,276,2.0,19.0,78,0.00,,---,0.00,VWS V13.01,2013-02-04 02:55:00,
2013-02-03 22:00:00,29.6,23.0,29.93,West,278,1.0,5.0,76,0.00,,---,0.00,VWS V13.01,2013-02-04 03:00:00,
2013-02-03 22:05:00,29.7,22.8,29.93,West,269,2.0,9.0,75,0.00,,---,0.00,VWS V13.01,2013-02-04 03:05:00,
2013-02-03 22:10:00,29.8,21.9,29.93,West,270,1.0,10.0,72,0.00,,---,0.00,VWS V13.01,2013-02-04 03:10:00,
2013-02-03 22:15:00,29.9,21.3,29.93,West,277,9.0,14.0,70,0.00,,---,0.00,VWS V13.01,2013-02-04 03:15:00,
2013-02-03 22:20:00,30.0,20.7,29.94,West,274,3.0,14.0,68,0.00,,---,0.00,VWS V13.01,2013-02-04 03:20:00,
2013-02-03 22:25:00,29.9,19.6,29.94,West,277,9.0,18.0,65,0.00,,---,0.00,VWS V13.01,2013-02-04 03:25:00,
2013-02-03 22:30:00,29.9,19.2,29.94,WSW,251,4.0,10.0,64,0.00,,---,0.00,VWS V13.01,2013-02-04 03:30:00,
2013-02-03 22:35:00,29.7,19.0,29.94,West,274,7.0,10.0,64,0.00,,---,0.00,VWS V13.01,2013-02-04 03:35:00,
2013-02-03 22:40:00,29.6,18.2,29.94,NW,311,5.0,13.0,62,0.00,,---,0.00,VWS V13.01,2013-02-04 03:40:00,
2013-02-03 22:45:00,29.4,18.4,29.94,WNW,291,7.0,13.0,63,0.00,,---,0.00,VWS V13.01,2013-02-04 03:45:00,
2013-02-03 22:50:00,29.4,17.6,29.94,West,262,4.0,14.0,61,0.00,,---,0.00,VWS V13.01,2013-02-04 03:50:00,
2013-02-03 22:55:00,29.2,17.8,29.94,West,271,10.0,14.0,62,0.00,,---,0.00,VWS V13.01,2013-02-04 03:55:00,
2013-02-03 23:00:00,29.2,17.8,29.94,WNW,300,3.0,3.0,62,0.00,,---,0.00,VWS V13.01,2013-02-04 04:00:00,
2013-02-03 23:05:00,29.1,17.7,29.94,WSW,253,1.0,16.0,62,0.00,,---,0.00,VWS V13.01,2013-02-04 04:05:00,
2013-02-03 23:10:00,29.0,17.6,29.95,WNW,282,1.0,16.0,62,0.00,,---,0.00,VWS V13.01,2013-02-04 04:10:00,
2013-02-03 23:15:00,28.9,17.9,29.95,WNW,300,5.0,16.0,63,0.00,,---,0.00,VWS V13.01,2013-02-04 04:15:00,
2013-02-03 23:20:00,28.7,17.7,29.95,NW,308,4.0,16.0,63,0.00,,---,0.00,VWS V13.01,2013-02-04 04:20:00,
2013-02-03 23:25:00,28.6,17.6,29.95,WNW,296,1.0,16.0,63,0.00,,---,0.00,VWS V13.01,2013-02-04 04:25:00,
2013-02-03 23:30:00,28.5,17.5,29.96,WNW,283,0.0,2.0,63,0.00,,---,0.00,VWS V13.01,2013-02-04 04:30:00,
2013-02-03 23:35:00,28.4,17.4,29.96,WNW,293,4.0,6.0,63,0.00,,---,0.00,VWS V13.01,2013-02-04 04:35:00,
2013-02-03 23:40:00,28.3,17.7,29.96,WNW,286,3.0,7.0,64,0.00,,---,0.00,VWS V13.01,2013-02-04 04:40:00,
2013-02-03 23:45:00,28.2,17.6,29.96,West,274,7.0,10.0,64,0.00,,---,0.00,VWS V13.01,2013-02-04 04:45:00,
2013-02-03 23:50:00,28.1,17.5,29.97,West,267,2.0,10.0,64,0.00,,---,0.00,VWS V13.01,2013-02-04 04:50:00,
2013-02-03 23:55:00,27.9,17.3,29.97,NE,48,2.0,10.0,64,0.00,,---,0.00,VWS V13.01,2013-02-04 04:55:00,